Quesnel,

4:42 AM PDT on September 24, 2017 (GMT -0700)
Quesnel

Weather History for CYQZ - November, 2013

Change the Weather History Date:

Saturday, November 9, 2013

  Actual Average Record
Temperature  
Mean Temperature 32 °F -  
Max Temperature 39 °F 32 °F 60 °F (2016)
Min Temperature 26 °F 20 °F 8 °F (2003)
Degree Days  
Heating Degree Days 32    
Moisture  
Dew Point 31 °F    
Average Humidity 96    
Maximum Humidity 100    
Minimum Humidity 75    
Precipitation  
Precipitation 0.00 in - - ()
Sea Level Pressure  
Sea Level Pressure 30.18 in    
Wind  
Wind Speed 3 mph ()    
Max Wind Speed 9 mph    
Max Gust Speed -    
Visibility 5.3 miles    
Events Fog , Rain    
Averages and records for this station are not official NWS values.
T = Trace of Precipitation, MM = Missing Value Source: Averaged Metar Reports

Daily Weather History Graph

Daily Weather History Graph

Search for Another Location

Airport or City:

Trip Planner

Search our weather history database for the weather conditions in past years. The results will help you decide how hot, cold, wet, or windy it might be!

Date:

Astronomy

Nov. 09, 2013 Rise Set
Actual Time 7:23 AM PST 4:23 PM PST
Civil Twilight 6:45 AM PST 5:01 PM PST
Nautical Twilight 6:04 AM PST 5:42 PM PST
Astronomical Twilight 5:23 AM PST 6:23 PM PST
Moon 12:54 PM PST (11/9) 11:13 PM PST (11/9)
Length of Visible Light 10h 15m
Length of Day
9h 00m
Waxing Crescent, 45% of the Moon is Illuminated
Nov 9
Waxing Crescent
Nov 9
First Quarter
Nov 17
Full
Nov 25
Last Quarter
Dec 2
New

Hourly Weather History & Observations

Time (PST) Temp. Windchill Dew Point Humidity Pressure Visibility Wind Dir Wind Speed Gust Speed Precip Events Conditions
12:00 AM 32.0 °F 27.5 °F 32.0 °F 100% 30.07 in 5.0 mi South 4.6 mph - N/A   Overcast
1:00 AM 32.0 °F 24.8 °F 32.0 °F 100% 30.07 in 9.0 mi South 8.1 mph - N/A   Mostly Cloudy
2:00 AM 32.0 °F 27.5 °F 32.0 °F 100% 30.09 in 9.0 mi South 4.6 mph - N/A   Overcast
3:00 AM 32.0 °F 25.6 °F 32.0 °F 100% 30.09 in 9.0 mi SSE 6.9 mph - N/A   Mostly Cloudy
4:00 AM 32.0 °F 27.5 °F 32.0 °F 100% 30.11 in 9.0 mi South 4.6 mph - N/A   Overcast
4:42 AM 30.2 °F - 30.2 °F 100% 30.12 in 2.0 mi Variable 2.3 mph - N/A   Mostly Cloudy
5:00 AM 30.2 °F - 30.2 °F 100% 30.12 in 3.0 mi Variable 2.3 mph - N/A   Mostly Cloudy
5:22 AM 30.2 °F - 28.4 °F 93% 30.13 in 2.0 mi Variable 2.3 mph - N/A   Scattered Clouds
5:35 AM 30.2 °F - 30.2 °F 100% 30.13 in 3.0 mi Variable 2.3 mph - N/A   Partly Cloudy
6:00 AM 30.2 °F - 30.2 °F 100% 30.13 in 9.0 mi Calm Calm - N/A   Mostly Cloudy
6:12 AM 30.2 °F - 28.4 °F 93% 30.13 in 2.2 mi Calm Calm - N/A   Mostly Cloudy
6:23 AM 28.4 °F 24.6 °F 28.4 °F 100% 30.14 in 0.5 mi WNW 3.5 mph - N/A Fog Light Freezing Fog
6:29 AM 28.4 °F - 28.4 °F 100% 30.14 in 0.6 mi Calm Calm - N/A   Mostly Cloudy
6:36 AM 30.2 °F - 30.2 °F 100% 30.14 in 3.0 mi Variable 2.3 mph - N/A   Overcast
6:57 AM 30.2 °F - 30.2 °F 100% 30.15 in 2.5 mi Calm Calm - N/A   Overcast
7:00 AM 28.4 °F - 28.4 °F 100% 30.15 in 1.0 mi Calm Calm - N/A   Overcast
7:19 AM 30.2 °F - 30.2 °F 100% 30.15 in 3.0 mi South 2.3 mph - N/A   Overcast
8:00 AM 32.0 °F 26.4 °F 30.2 °F 93% 30.16 in 9.0 mi South 5.8 mph - N/A   Overcast
9:00 AM 32.0 °F - 30.2 °F 93% 30.17 in 9.0 mi Calm Calm - N/A   Mostly Cloudy
9:42 AM 32.0 °F - 32.0 °F 100% 30.18 in 7.0 mi South 2.3 mph - N/A   Scattered Clouds
9:46 AM 33.8 °F - 32.0 °F 93% 30.18 in 8.0 mi SSE 2.3 mph - N/A Rain Light Rain
9:54 AM 33.8 °F - 32.0 °F 93% 30.18 in 9.0 mi South 2.3 mph - N/A Rain Light Rain
10:00 AM 33.8 °F - 32.0 °F 93% 30.18 in 9.0 mi Variable 2.3 mph - N/A   Scattered Clouds
10:12 AM 32.0 °F 28.7 °F 30.2 °F 93% 30.19 in 1.5 mi WSW 3.5 mph - N/A   Mostly Cloudy
10:28 AM 32.0 °F - 32.0 °F 100% 30.19 in 6.0 mi Calm Calm - N/A   Mostly Cloudy
10:43 AM 33.8 °F - 32.0 °F 93% 30.19 in 9.0 mi Calm Calm - N/A Rain Light Rain
11:00 AM 33.8 °F - 32.0 °F 93% 30.19 in 9.0 mi South 2.3 mph - N/A   Mostly Cloudy
12:00 PM 39.2 °F 33.0 °F 32.0 °F 75% 30.17 in 9.0 mi SSE 9.2 mph - N/A   Clear
1:00 PM 39.2 °F 34.2 °F 32.0 °F 75% 30.18 in 9.0 mi SSE 6.9 mph - N/A   Clear
2:00 PM 39.2 °F 34.2 °F 32.0 °F 75% 30.17 in 9.0 mi SSE 6.9 mph - N/A   Clear
3:00 PM 37.4 °F - 33.8 °F 87% 30.19 in 9.0 mi Calm Calm - N/A   Scattered Clouds
4:00 PM 35.6 °F - 33.8 °F 93% 30.19 in 9.0 mi WNW 2.3 mph - N/A   Scattered Clouds
5:00 PM 32.0 °F - 32.0 °F 100% 30.20 in 5.0 mi Calm Calm - N/A   Overcast
6:00 PM 32.0 °F 28.7 °F 32.0 °F 100% 30.21 in 9.0 mi SSW 3.5 mph - N/A   Overcast
7:00 PM 32.0 °F - 32.0 °F 100% 30.23 in 9.0 mi Calm Calm - N/A   Overcast
8:00 PM 30.2 °F - 30.2 °F 100% 30.23 in 2.0 mi Calm Calm - N/A   Mostly Cloudy
8:11 PM 28.4 °F - 28.4 °F 100% 30.24 in 5.0 mi Calm Calm - N/A   Scattered Clouds
8:18 PM 28.4 °F - 28.4 °F 100% 30.24 in 1.8 mi Calm Calm - N/A   Scattered Clouds
8:36 PM 26.6 °F - 26.6 °F 100% 30.25 in 0.8 mi Calm Calm - N/A   Mostly Cloudy
8:43 PM 28.4 °F - 28.4 °F 100% 30.25 in 0.5 mi Calm Calm - N/A Fog Light Freezing Fog
9:00 PM 28.4 °F - 28.4 °F 100% 30.25 in 0.1 mi North 2.3 mph - N/A Fog Light Freezing Fog
10:00 PM 30.2 °F - 30.2 °F 100% 30.25 in 0.4 mi Calm Calm - N/A Fog Light Freezing Fog
10:10 PM 30.2 °F - 30.2 °F 100% 30.25 in 0.6 mi Variable 2.3 mph - N/A   Overcast
10:21 PM 30.2 °F - 30.2 °F 100% 30.25 in 2.5 mi Calm Calm - N/A   Overcast
10:23 PM 30.2 °F - 30.2 °F 100% 30.25 in 3.0 mi Calm Calm - N/A   Overcast
11:00 PM 32.0 °F - 32.0 °F 100% 30.26 in 9.0 mi Calm Calm - N/A   Overcast